Weather History for Peachtree City, GA

Change the Weather History Date:

Friday, February 28, 2014

  Actual Average Record
Temperature  
Mean Temperature 40 °F 50 °F  
Max Temperature 57 °F 62 °F 77 °F (2011)
Min Temperature 22 °F 37 °F 12 °F (2002)
Degree Days  
Heating Degree Days 25 16  
Month to date heating degree days 522 514  
Since 1 July heating degree days 2530 2382  
Cooling Degree Days 0 0  
Month to date cooling degree days 0 0  
Year to date cooling degree days 0 0  
Moisture  
Dew Point 19 °F    
Average Humidity 52    
Maximum Humidity 84    
Minimum Humidity 20    
Precipitation  
Precipitation T in 0.18 in 3.02 in (1997)
Month to date precipitation 3.96 4.90  
Year to date precipitation 6.34 9.10  
Sea Level Pressure  
Sea Level Pressure 30.12 in    
Wind  
Wind Speed 5 mph (East)    
Max Wind Speed 15 mph    
Max Gust Speed 23 mph    
Visibility 10 miles    
Events Rain    
T = Trace of Precipitation, MM = Missing Value Source: NWS Daily Summary

Daily Weather History Graph

Daily Weather History Graph

Search for Another Location

Airport:

Trip Planner

Search our weather history database for the weather conditions in past years. The results will help you decide how hot, cold, wet, or windy it might be!

Date:

Astronomy

Feb. 28, 2014 Rise Set
Actual Time 7:07 AM EST 6:34 PM EST
Civil Twilight 6:42 AM EST 6:59 PM EST
Nautical Twilight 6:13 AM EST 7:28 PM EST
Astronomical Twilight 5:45 AM EST 7:56 PM EST
Moon 6:21 AM EST (2/28) 6:09 PM EST (2/28)
Length of Visible Light 12h 16m
Length of Day
11h 26m
Waning Crescent, 1% of the Moon is Illuminated
Feb 28
Waning Crescent
Mar 1
New
Mar 8
First Quarter
Mar 16
Full
Mar 23
Last Quarter

Hourly Weather History & Observations

Time (EST) Temp. Windchill Dew Point Humidity Pressure Visibility Wind Dir Wind Speed Gust Speed Precip Events Conditions
12:53 AM 28.0 °F - 19.0 °F 69% 30.04 in 10.0 mi Calm Calm - N/A   Clear
1:53 AM 26.1 °F - 19.9 °F 78% 30.05 in 10.0 mi Calm Calm - N/A   Clear
2:53 AM 26.1 °F - 18.0 °F 71% 30.04 in 10.0 mi Calm Calm - N/A   Clear
3:53 AM 24.1 °F - 18.0 °F 77% 30.05 in 10.0 mi Calm Calm - N/A   Clear
4:53 AM 26.1 °F 20.5 °F 19.0 °F 75% 30.06 in 10.0 mi NW 4.6 mph - N/A   Clear
5:53 AM 23.0 °F - 18.0 °F 81% 30.09 in 10.0 mi Calm Calm - N/A   Clear
6:53 AM 21.9 °F 17.2 °F 17.1 °F 82% 30.12 in 10.0 mi NW 3.5 mph - N/A   Clear
7:53 AM 28.9 °F 25.2 °F 17.1 °F 61% 30.13 in 10.0 mi NW 3.5 mph - N/A   Clear
8:53 AM 37.0 °F 31.0 °F 12.9 °F 37% 30.16 in 10.0 mi ENE 8.1 mph - N/A   Clear
9:53 AM 42.1 °F 34.9 °F 12.9 °F 31% 30.16 in 10.0 mi East 13.8 mph 23.0 mph N/A   Clear
10:53 AM 46.0 °F 41.4 °F 15.1 °F 29% 30.16 in 10.0 mi ESE 9.2 mph - N/A   Clear
11:53 AM 48.0 °F - 15.1 °F 27% 30.16 in 10.0 mi Variable 6.9 mph - N/A   Clear
12:53 PM 50.0 °F - 14.0 °F 24% 30.14 in 10.0 mi ESE 8.1 mph - N/A   Clear
1:53 PM 53.1 °F - 14.0 °F 21% 30.11 in 10.0 mi SE 8.1 mph - N/A   Clear
2:53 PM 55.0 °F - 15.1 °F 21% 30.10 in 10.0 mi ESE 5.8 mph - N/A   Clear
3:53 PM 55.9 °F - 15.1 °F 20% 30.10 in 10.0 mi East 11.5 mph - N/A   Clear
4:53 PM 55.0 °F - 15.1 °F 21% 30.12 in 10.0 mi ESE 4.6 mph - N/A   Scattered Clouds
5:53 PM 54.0 °F - 17.1 °F 23% 30.12 in 10.0 mi East 5.8 mph - N/A   Mostly Cloudy
6:53 PM 52.0 °F - 24.1 °F 34% 30.13 in 10.0 mi Calm Calm - 0.00 in   Overcast
7:53 PM 48.9 °F - 25.0 °F 39% 30.14 in 10.0 mi East 4.6 mph - N/A   Overcast
8:53 PM 45.0 °F 43.5 °F 30.0 °F 56% 30.16 in 10.0 mi SE 3.5 mph - N/A   Overcast
9:53 PM 48.9 °F - 24.1 °F 38% 30.16 in 10.0 mi ESE 6.9 mph - N/A   Mostly Cloudy
10:53 PM 50.0 °F - 23.0 °F 35% 30.16 in 10.0 mi SE 3.5 mph - N/A   Overcast
11:53 PM 48.0 °F - 27.0 °F 44% 30.14 in 10.0 mi East 6.9 mph - 0.00 in Rain Light Rain